Miscellaneous Local Product
Issued by NWS Hastings, NE

Home | Current Version | Previous Version | Graphics & Text | Print | Product List | Glossary On
Versions: 1 2 3 4 5 6 7 8 9 10 11 12 13 14 15 16 17 18 19 20 21 22 23 24 25 26 27 28 29 30 31 32 33 34 35 36 37 38 39 40 41 42 43 44 45 46 47 48 49 50
000
AXUS43 KGID 180102
MISGRI

GID CWA HOURLY WEATHER ROUNDUP
NATIONAL WEATHER SERVICE HASTINGS NE
800 PM CDT FRI APR 17 2015

NOTE: "FAIR" INDICATES FEW OR NO CLOUDS BELOW 12,000 FEET WITH NO
SIGNIFICANT WEATHER AND/OR OBSTRUCTIONS TO VISIBILITY.

...SOUTH CENTRAL NEBRASKA...

CITY           SKY/WX    TMP DP  RH WIND       PRES   REMARKS
GRAND ISLAND   MOCLDY    63  54  72 SE6       29.99F
HASTINGS       PTCLDY    64  53  67 E9        29.97F
KEARNEY        MOCLDY    61  55  82 E8        29.98F
ORD            CLOUDY    60  53  77 N8        29.99F
YORK           LGT RAIN  63  57  82 S6        29.99S
AURORA         MOCLDY    67  55  66 SE12      29.99S
LEXINGTON      PTCLDY    62  57  84 E12       29.97S
HOLDREGE       PTCLDY    64  55  70 E10       29.97S
HEBRON         MOCLDY    67  56  68 NE7       29.96F

...NEBRASKA PANHANDLE...

CITY           SKY/WX    TMP DP  RH WIND       PRES   REMARKS
CHADRON        LGT RAIN  46  44  93 NE13      30.08F
ALLIANCE       LGT RAIN  48  47  96 E16       30.03S FOG
SCOTTSBLUFF    LGT RAIN  45  45 100 NW17      30.03F FOG
SIDNEY         CLOUDY    51  50  96 E10       29.99S FOG

...WESTERN AND NORTH CENTRAL NEBRASKA...

CITY           SKY/WX    TMP DP  RH WIND       PRES   REMARKS
VALENTINE      LGT RAIN  54  51  90 NE8       30.06F
AINSWORTH      CLOUDY    54  53  94 NE8       30.05S
ONEILL         MOCLDY    63  49  59 N9        30.04F
BROKEN BOW     MOCLDY    59  54  83 NE15      30.00S
IMPERIAL       MOCLDY    59  50  72 E8        29.93F
NORTH PLATTE   MOCLDY    59  54  83 E10       29.98S
MCCOOK         PTCLDY    64  52  64 E12       29.92F

...EASTERN NEBRASKA...

CITY           SKY/WX    TMP DP  RH WIND       PRES   REMARKS
NORFOLK        NOT AVBL
SO SIOUX CITY  MOCLDY    72  45  37 NE7       30.00S
TEKAMAH        CLOUDY    72  51  47 E5        29.98S
COLUMBUS       MOCLDY    70  52  52 E5        30.01S
ALBION         CLOUDY    67  49  52 NE6       30.00S
OMAHA EPPLEY   CLOUDY    74  52  46 E6        29.98R
OFFUTT AFB     CLOUDY    69  54  57 E5        29.97S
MILLARD        CLOUDY    73  55  51 SE3       29.98S
LINCOLN        CLOUDY    69  55  60 SE5       29.99R
NEBRASKA CITY  CLOUDY    68  51  55 NE6       29.99S
BEATRICE       CLOUDY    67  55  66 E7        29.98S
FALLS CITY     CLOUDY    70  57  63 CALM      29.96S

...NORTHERN KANSAS...

CITY           SKY/WX    TMP DP  RH WIND       PRES   REMARKS
GOODLAND       MOCLDY    55  45  68 NE8       29.93F
HILL CITY      CLOUDY    66  51  58 S6        29.94R
NORTON         CLEAR     64  48  55 E9        29.93S
PHILLIPSBURG   PTCLDY    70  54  56 E9        29.94R
SMITH CENTER   CLEAR     64  54  68 E12       29.94S
BELOIT         PTCLDY    66  52  59 E6        29.92S
HAYS           MOCLDY    66  50  55 E8        29.93S
RUSSELL        MOCLDY    67  55  65 SE8       29.91F
CONCORDIA      MOCLDY    69  56  62 E7        29.94S
SALINA         MOCLDY    70  57  63 SE8       29.93F
TOPEKA         CLOUDY    68  58  70 SE6       29.96S



USA.gov is the U.S. government's official web portal to all federal, state and local government web resources and services.